Location: Asheville, NC
(35.6000°N, 82.5500°W)
Time: 07:32:28
(UTC-04:00)

Vanguard 1 Rocket - Pass Details

Date: 15 February 2018
Orbit: 652 x 4225 km, 34.3° (Epoch: 20 May)

Event Time Altitude Azimuth Distance (km) Brightness Sun altitude
Rises 04:08:59 0° 275° (W) 8,377 - -38.7°
Reaches altitude 10° 04:14:44 10° 276° (W) 7,425 - -37.5°
Exits shadow 04:30:47 47° 272° (W) 4,718 10.4 -34.3°
Maximum altitude 04:40:57 82° 194° (SSW) 3,504 10.1 -32.3°
Drops below altitude 10° 04:56:53 10° 109° (ESE) 4,900 11.9 -29.1°
Sets 04:59:47 0° 108° (ESE) 5,546 12.4 -28.5°
